Weather History for Pueblo, CO

Change the Weather History Date:

Monday, May 12, 2014

  Actual Average Record
Temperature  
Mean Temperature 43 °F 59 °F  
Max Temperature 48 °F 76 °F 95 °F (1962)
Min Temperature 37 °F 43 °F 29 °F (1953)
Degree Days  
Heating Degree Days 22 6  
Month to date heating degree days 95 95  
Since 1 July heating degree days 5352 5535  
Cooling Degree Days 0 1  
Month to date cooling degree days 7 3  
Year to date cooling degree days 9 5  
Moisture  
Dew Point 27 °F    
Average Humidity 60    
Maximum Humidity 85    
Minimum Humidity 34    
Precipitation  
Precipitation 0.01 in 0.05 in 0.58 in (1896)
Month to date precipitation 0.24 0.60  
Year to date precipitation 3.79 3.58  
Snow  
Snow 0.00 in 0.00 in 3.40 in (1953)
Month to date snowfall T 0.4  
Since 1 July snowfall 29.3 31.7  
Snow Depth 0.00 in    
Sea Level Pressure  
Sea Level Pressure 30.19 in    
Wind  
Wind Speed 20 mph (North)    
Max Wind Speed 36 mph    
Max Gust Speed 43 mph    
Visibility 10 miles    
Events Rain    
T = Trace of Precipitation, MM = Missing Value Source: NWS Daily Summary

Daily Weather History Graph

Daily Weather History Graph

Search for Another Location

Airport:

Trip Planner

Search our weather history database for the weather conditions in past years. The results will help you decide how hot, cold, wet, or windy it might be!

Date:

Astronomy

May. 12, 2014 Rise Set
Actual Time 5:49 AM MDT 7:59 PM MDT
Civil Twilight 5:20 AM MDT 8:29 PM MDT
Nautical Twilight 4:44 AM MDT 9:05 PM MDT
Astronomical Twilight 4:05 AM MDT 9:44 PM MDT
Moon 6:01 PM MDT (5/12) 4:28 AM MDT (5/12)
Length of Visible Light 15h 08m
Length of Day
14h 10m
Waxing Gibbous, 95% of the Moon is Illuminated
May 12
Waxing Gibbous
May 14
Full
May 21
Last Quarter
May 28
New
Jun 5
First Quarter

Hourly Weather History & Observations

Time (MDT) Temp. Windchill Dew Point Humidity Pressure Visibility Wind Dir Wind Speed Gust Speed Precip Events Conditions
12:53 AM 37.0 °F 30.4 °F 33.1 °F 86% 30.05 in 10.0 mi NW 9.2 mph - 0.02 in Rain Light Rain
1:26 AM 37.9 °F 30.0 °F 33.1 °F 83% 30.06 in 10.0 mi North 12.7 mph - 0.01 in   Overcast
1:53 AM 39.0 °F 31.4 °F 32.0 °F 76% 30.04 in 10.0 mi NNW 12.7 mph 24.2 mph 0.01 in   Overcast
2:02 AM 37.9 °F 29.6 °F 32.0 °F 79% 30.06 in 10.0 mi North 13.8 mph - 0.00 in Rain Light Rain
2:48 AM 37.4 °F 28.9 °F 32.0 °F 81% 30.07 in 10.0 mi North 13.8 mph - 0.00 in Rain Light Rain
2:53 AM 37.9 °F 29.2 °F 30.9 °F 76% 30.05 in 10.0 mi North 15.0 mph - 0.00 in   Overcast
3:53 AM 39.0 °F 31.4 °F 30.9 °F 73% 30.06 in 10.0 mi NNW 12.7 mph - N/A   Overcast
4:53 AM 39.0 °F 30.6 °F 30.0 °F 70% 30.07 in 10.0 mi NNW 15.0 mph - N/A   Overcast
5:53 AM 39.0 °F 31.4 °F 30.0 °F 70% 30.12 in 10.0 mi NW 12.7 mph - N/A   Overcast
6:53 AM 39.0 °F 33.4 °F 28.9 °F 67% 30.13 in 10.0 mi North 8.1 mph - N/A   Overcast
7:53 AM 39.2 °F 32.0 °F 30.2 °F 70% 30.14 in 10.0 mi North 11.5 mph - N/A   Overcast
8:53 AM 42.1 °F 32.6 °F 28.9 °F 60% 30.17 in 10.0 mi North 23.0 mph 33.4 mph N/A   Overcast
9:53 AM 42.1 °F 31.3 °F 28.9 °F 60% 30.20 in 10.0 mi North 29.9 mph - N/A   Overcast
10:53 AM 43.0 °F 32.4 °F 28.0 °F 56% 30.24 in 10.0 mi NNE 31.1 mph 38.0 mph N/A   Overcast
11:53 AM 43.0 °F 32.5 °F 26.1 °F 51% 30.25 in 10.0 mi NNE 29.9 mph 38.0 mph N/A   Overcast
12:53 PM 46.0 °F 36.2 °F 24.1 °F 42% 30.22 in 10.0 mi North 33.4 mph 42.6 mph N/A   Mostly Cloudy
1:53 PM 46.9 °F - 21.9 °F 37% 30.22 in 10.0 mi North 31.1 mph 39.1 mph N/A   Overcast
2:53 PM 46.0 °F 36.9 °F 21.9 °F 39% 30.22 in 10.0 mi North 28.8 mph 38.0 mph N/A   Overcast
3:53 PM 46.0 °F 36.7 °F 19.9 °F 35% 30.21 in 10.0 mi NNE 29.9 mph 35.7 mph N/A   Overcast
4:53 PM 45.0 °F 35.4 °F 21.0 °F 39% 30.22 in 10.0 mi North 28.8 mph 38.0 mph N/A   Overcast
5:53 PM 44.1 °F 34.6 °F 19.9 °F 38% 30.23 in 10.0 mi North 26.5 mph 33.4 mph N/A   Overcast
6:53 PM 44.1 °F 34.6 °F 21.9 °F 42% 30.24 in 10.0 mi North 26.5 mph - N/A   Overcast
7:53 PM 43.0 °F 34.0 °F 21.9 °F 43% 30.28 in 10.0 mi North 21.9 mph - N/A   Overcast
8:53 PM 42.8 °F 35.4 °F 24.8 °F 49% 30.32 in 10.0 mi North 15.0 mph - N/A   Overcast
9:53 PM 42.1 °F 36.6 °F 25.0 °F 51% 30.36 in 10.0 mi NNE 9.2 mph - N/A   Overcast
10:53 PM 41.0 °F 34.3 °F 24.1 °F 51% 30.39 in 10.0 mi NNE 11.5 mph - N/A   Overcast
11:53 PM 41.0 °F 34.3 °F 24.8 °F 53% 30.39 in 10.0 mi NNE 11.5 mph - N/A   Overcast